GW0996 Weather Reports


time (UTC)temp
C
wind
direction
speed
KPH
gust
KPH
rain 1hr
cm
rain 24hr
cm
rain mn
cm
humidity
%
barometer
mb
20260503180953 17 320 0.0 3.2 0.00 0.00 0.00 63 1016.4
20260503180454 18 63 0.0 3.2 0.00 0.00 0.00 62 1016.5
20260503175954 18 312 0.0 1.6 0.00 0.00 0.00 60 1016.5
20260503175453 18 312 0.0 1.6 0.00 0.00 0.00 58 1016.4
20260503174953 19 312 0.0 3.2 0.00 0.00 0.00 56 1016.4
20260503174453 20 312 0.0 3.2 0.00 0.00 0.00 54 1016.4
20260503173952 20 312 1.6 3.2 0.00 0.00 0.00 49 1016.2
20260503172954 21 312 1.6 4.8 0.00 0.00 0.00 47 1016.4
20260503172453 21 315 1.6 6.4 0.00 0.00 0.00 46 1016.4
20260503171952 21 315 3.2 6.4 0.00 0.00 0.00 45 1016.2
20260503171453 21 318 0.0 4.8 0.00 0.00 0.00 45 1016.3
20260503170939 21 316 0.0 4.8 0.00 0.00 0.00 45 1016.5
20260503170441 21 315 3.2 4.8 0.00 0.00 0.00 44 1016.2
20260503150942 23 309 3.2 11.3 0.00 0.00 0.00 42 1016.8
20260503150439 22 52 0.0 6.4 0.00 0.00 0.00 42 1016.7
20260503131353 24 318 0.0 9.7 0.00 0.00 0.00 38 1017.8
20260503130836 24 6 0.0 11.3 0.00 0.00 0.00 39 1017.8
20260503130338 24 306 3.2 14.5 0.00 0.00 0.00 38 1017.7
20260503110339 25 203 0.0 1.6 0.00 0.00 0.00 37 1018.3
20260503090328 21 146 0.0 1.6 0.00 0.00 0.00 44 1019.3
20260503081253 17 177 0.0 1.6 0.00 0.00 0.00 53 1019.6
20260503080751 16 177 0.0 1.6 0.00 0.00 0.00 58 1020.0
20260503080305 17 112 0.0 1.6 0.00 0.00 0.00 55 1020.1
20260503072753 13 16 0.0 0.0 0.00 0.00 0.00 68 1020.4
20260503072251 13 16 0.0 0.0 0.00 0.00 0.00 65 1020.4
20260503071752 13 15 0.0 0.0 0.00 0.00 0.00 70 1020.6
20260503071252 13 15 0.0 0.0 0.00 0.00 0.00 69 1020.5
20260503070752 12 15 0.0 0.0 0.00 0.00 0.00 71 1020.6
20260503070246 12 15 0.0 0.0 0.00 0.00 0.00 72 1020.5
20260503060157 9 23 0.0 0.0 0.00 0.00 0.00 83 1020.9
20260503054654 7 23 0.0 0.0 0.00 0.00 0.00 90 1020.8
20260503054152 7 22 0.0 0.0 0.00 0.00 0.00 93 1020.6
20260503053653 7 22 0.0 0.0 0.00 0.00 0.00 93 1020.7
20260503053156 6 22 0.0 0.0 0.00 0.00 0.00 93 1020.8
20260503052652 6 22 0.0 0.0 0.00 0.00 0.00 93 1020.8
20260503052152 6 22 0.0 0.0 0.00 0.00 0.00 93 1020.4
20260503051653 6 22 0.0 0.0 0.00 0.00 0.00 93 1020.8
20260503051156 6 22 0.0 0.0 0.00 0.00 0.00 94 1020.5
20260503050653 5 22 0.0 0.0 0.00 0.00 0.00 94 1020.5
20260503050154 5 22 0.0 0.0 0.00 0.00 0.00 93 1020.6
20260503045653 5 22 0.0 0.0 0.00 0.00 0.00 93 1020.3
20260503045155 5 22 0.0 0.0 0.00 0.00 0.00 93 1020.6
20260503044653 5 22 0.0 0.0 0.00 0.00 0.00 93 1020.3
20260503044155 5 23 0.0 0.0 0.00 0.00 0.00 93 1020.4
20260503043653 5 23 0.0 0.0 0.00 0.00 0.00 93 1020.4
20260503043152 5 23 0.0 0.0 0.00 0.00 0.00 93 1020.3
20260503042652 5 23 0.0 0.0 0.00 0.00 0.00 93 1020.1
20260503042153 5 23 0.0 1.6 0.00 0.00 0.00 93 1020.1
20260503041654 5 23 0.0 1.6 0.00 0.00 0.00 92 1020.3
20260503041153 5 20 0.0 1.6 0.00 0.00 0.00 92 1020.3
20260503040651 5 28 0.0 0.0 0.00 0.00 0.00 93 1020.2
20260503040152 5 28 0.0 0.0 0.00 0.00 0.00 93 1020.1
20260503033652 5 29 0.0 0.0 0.00 0.00 0.00 92 1020.1
20260503033152 5 29 0.0 0.0 0.00 0.00 0.00 92 1020.2
20260503032652 5 29 0.0 0.0 0.00 0.00 0.00 92 1019.9
20260503032152 5 29 0.0 0.0 0.00 0.00 0.00 92 1020.1
20260503031653 5 29 0.0 0.0 0.00 0.00 0.00 92 1020.1
20260503030653 5 29 0.0 0.0 0.00 0.00 0.00 92 1020.0
20260503030152 6 29 0.0 0.0 0.00 0.00 0.00 91 1020.1
20260503025652 6 29 0.0 0.0 0.00 0.00 0.00 91 1020.1
20260503025152 6 30 0.0 0.0 0.00 0.00 0.00 91 1020.0
20260503024651 6 30 0.0 0.0 0.00 0.00 0.00 91 1020.0
20260503024152 6 30 0.0 0.0 0.00 0.00 0.00 91 1020.0
20260503023652 6 30 0.0 0.0 0.00 0.00 0.00 91 1020.0
20260503023133 6 30 0.0 0.0 0.00 0.00 0.00 90 1019.8
20260503022627 6 30 0.0 0.0 0.00 0.00 0.00 90 1020.1
20260503022128 6 30 0.0 0.0 0.00 0.00 0.00 90 1020.0
20260503021622 6 30 0.0 0.0 0.00 0.00 0.00 90 1020.1
20260503021117 6 30 0.0 0.0 0.00 0.00 0.00 91 1019.8
20260503020616 6 30 0.0 0.0 0.00 0.00 0.00 90 1019.7
20260503020110 6 28 0.0 0.0 0.00 0.00 0.00 89 1019.9
20260503015607 6 28 0.0 0.0 0.00 0.00 0.00 89 1019.8
20260503015052 6 25 0.0 0.0 0.00 0.00 0.00 90 1019.8
20260503014055 6 26 0.0 0.0 0.00 0.00 0.00 89 1019.9
20260503013052 6 26 0.0 0.0 0.00 0.00 0.00 88 1019.9
20260503012552 6 26 0.0 0.0 0.00 0.00 0.00 88 1020.0
20260503012052 6 26 0.0 0.0 0.00 0.00 0.00 88 1020.1
20260503011053 7 17 0.0 0.0 0.00 0.00 0.00 86 1019.9
20260503010553 7 17 0.0 0.0 0.00 0.00 0.00 87 1020.2
20260503010053 7 20 0.0 0.0 0.00 0.00 0.00 87 1020.0
20260503005554 7 22 0.0 0.0 0.00 0.00 0.00 85 1020.2
20260503005052 7 6 0.0 0.0 0.00 0.00 0.00 84 1020.2
20260503004551 7 4 0.0 0.0 0.00 0.00 0.00 84 1020.2
20260503003551 7 5 0.0 0.0 0.00 0.00 0.00 86 1020.5
20260503003053 7 353 0.0 0.0 0.00 0.00 0.00 85 1020.3
20260503002554 7 353 0.0 0.0 0.00 0.00 0.00 84 1020.4
20260503002054 7 353 0.0 0.0 0.00 0.00 0.00 84 1020.2
20260503001555 8 353 0.0 0.0 0.00 0.00 0.00 83 1020.3
20260503001054 8 353 0.0 1.6 0.00 0.00 0.00 83 1020.3
20260503000552 8 350 0.0 3.2 0.00 0.00 0.00 83 1020.1
20260503000052 8 348 0.0 3.2 0.00 0.00 0.00 84 1020.0
20260502235554 8 91 0.0 0.0 0.00 0.00 0.00 85 1020.4
20260502235052 7 92 0.0 0.0 0.00 0.00 0.00 85 1020.3
20260502234552 7 93 0.0 0.0 0.00 0.00 0.00 84 1020.5
20260502234052 8 92 0.0 1.6 0.00 0.00 0.00 84 1020.6
20260502233552 8 94 0.0 1.6 0.00 0.00 0.00 84 1020.3
20260502233051 8 87 0.0 1.6 0.00 0.00 0.00 83 1020.3
20260502232553 8 33 0.0 1.6 0.00 0.00 0.00 82 1020.5
20260502232053 8 37 0.0 1.6 0.00 0.00 0.00 81 1020.5
20260502231553 8 37 0.0 1.6 0.00 0.00 0.00 83 1020.3
20260502231053 8 61 0.0 0.0 0.00 0.00 0.00 82 1020.5
20260502230052 8 55 0.0 0.0 0.00 0.00 0.00 82 1020.5
20260502225552 8 55 0.0 0.0 0.00 0.00 0.00 81 1020.5
20260502223554 9 55 0.0 0.0 0.00 0.00 0.00 79 1020.6
20260502223048 9 54 0.0 0.0 0.00 0.00 0.00 80 1020.6
20260502222544 9 47 0.0 0.0 0.00 0.00 0.00 79 1020.6
20260502222042 9 47 0.0 1.6 0.00 0.00 0.00 79 1020.5
20260502221534 9 47 0.0 1.6 0.00 0.00 0.00 79 1020.6
20260502221028 9 47 0.0 0.0 0.00 0.00 0.00 77 1020.3
20260502220528 10 42 0.0 0.0 0.00 0.00 0.00 76 1020.4
20260502220024 10 42 0.0 0.0 0.00 0.00 0.00 75 1020.3
20260502215515 10 48 0.0 0.0 0.00 0.00 0.00 76 1020.5
20260502214958 10 60 0.0 1.6 0.00 0.00 0.00 74 1020.5
20260502214451 10 58 0.0 1.6 0.00 0.00 0.00 74 1020.4
20260502213953 10 58 0.0 1.6 0.00 0.00 0.00 74 1020.4
20260502212953 11 40 0.0 1.6 0.00 0.00 0.00 73 1020.5
20260502212455 11 36 0.0 1.6 0.00 0.00 0.00 73 1020.4
20260502211942 10 121 0.0 1.6 0.00 0.00 0.00 74 1020.2
20260502210943 11 60 0.0 0.0 0.00 0.00 0.00 73 1020.3
20260502210443 11 60 0.0 0.0 0.00 0.00 0.00 72 1020.4
20260502205942 11 47 0.0 0.0 0.00 0.00 0.00 72 1020.3
20260502205441 11 39 0.0 0.0 0.00 0.00 0.00 71 1020.4
20260502204941 12 38 0.0 0.0 0.00 0.00 0.00 70 1020.4
20260502204440 11 38 0.0 0.0 0.00 0.00 0.00 70 1020.3
20260502203942 11 42 0.0 0.0 0.00 0.00 0.00 70 1020.5
20260502202941 12 42 0.0 0.0 0.00 0.00 0.00 68 1020.4
20260502202440 12 42 0.0 0.0 0.00 0.00 0.00 66 1020.5
20260502201941 12 43 0.0 0.0 0.00 0.00 0.00 66 1020.4
20260502200941 12 119 0.0 0.0 0.00 0.00 0.00 66 1020.3
20260502200440 12 120 0.0 0.0 0.00 0.00 0.00 66 1020.3
20260502195941 13 119 0.0 0.0 0.00 0.00 0.00 65 1020.4
20260502194941 13 119 0.0 1.6 0.00 0.00 0.00 65 1020.3
20260502194441 13 119 0.0 1.6 0.00 0.00 0.00 66 1020.0
20260502193935 13 49 0.0 1.6 0.00 0.00 0.00 65 1020.0
20260502193429 13 17 0.0 4.8 0.00 0.00 0.00 64 1020.0
20260502192407 13 123 0.0 1.6 0.00 0.00 0.00 65 1020.1
20260502191352 14 131 0.0 1.6 0.00 0.00 0.00 64 1020.0
20260502190855 14 130 0.0 1.6 0.00 0.00 0.00 63 1019.8
20260502190354 14 129 0.0 3.2 0.00 0.00 0.00 63 1019.9
20260502185854 15 129 0.0 3.2 0.00 0.00 0.00 62 1019.7
20260502184853 15 133 0.0 1.6 0.00 0.00 0.00 62 1019.4
20260502184353 15 129 0.0 1.6 0.00 0.00 0.00 61 1019.7
20260502183856 16 73 0.0 1.6 0.00 0.00 0.00 58 1019.3
20260502183351 16 79 0.0 1.6 0.00 0.00 0.00 58 1019.3
20260502182852 16 79 0.0 1.6 0.00 0.00 0.00 56 1019.3
20260502182352 17 82 1.6 1.6 0.00 0.00 0.00 56 1019.4
20260502181353 17 2 0.0 1.6 0.00 0.00 0.00 53 1019.1